Theta_e
325 325 326 327 327 328 328 328 329 329 329 330 330 330 332 332 332 330 323 330 328 331 327 323 319 318 316 311 311 308 297 295 299 301 301 307 306 309 311 311 312 315 314 320 329
324 325 325 325 326 327 327 327 327 328 328 329 329 329 331 331 328 323 330 336 334 330 323 319 314 314 308 309 308 302 296 299 304 303 301 304 304 307 306 306 308 313 324 327 328
323 324 324 325 325 326 326 327 326 327 327 327 328 328 329 330 318 320 335 336 333 329 324 320 319 313 307 307 306 303 298 303 304 304 304 304 304 306 305 302 307 311 320 324 324
321 322 323 323 324 325 326 326 326 326 327 326 327 326 326 324 302 324 330 335 333 326 320 318 316 307 303 303 308 301 306 306 307 305 304 302 305 303 303 305 309 310 323 324 323
319 320 322 323 323 324 325 325 325 325 325 326 326 325 321 312 311 329 332 333 326 324 319 315 310 309 303 304 306 303 305 308 308 305 304 306 303 302 303 307 309 317 322 322 322
318 319 319 321 323 324 324 324 325 324 325 325 325 324 314 303 321 328 327 326 325 322 319 317 312 311 307 305 303 305 307 307 308 307 305 304 303 302 304 306 305 310 316 319 322
317 317 318 320 321 323 323 323 324 324 323 324 325 320 312 308 322 326 324 323 324 322 317 319 316 309 308 305 309 307 301 303 304 305 304 305 301 300 305 307 306 306 307 312 317
316 316 317 318 320 321 322 322 322 323 323 323 324 314 306 321 321 324 324 320 322 321 319 317 319 313 309 308 305 300 301 295 303 305 306 304 297 303 306 304 304 304 304 308 311
314 315 316 317 318 319 321 321 321 322 322 322 312 306 303 320 314 321 321 315 317 318 318 319 314 307 309 302 298 299 292 294 298 305 304 301 298 304 308 305 303 303 302 304 307
313 313 314 316 317 318 319 321 320 320 316 315 313 300 305 305 314 317 320 318 315 314 310 308 306 303 300 299 292 293 293 295 294 300 302 300 300 302 305 305 302 304 304 305 306
312 313 314 315 316 318 316 313 306 302 306 299 300 299 303 311 316 314 318 314 312 310 302 306 300 296 298 301 300 297 294 291 294 301 299 296 297 300 303 303 302 302 304 306 308
311 312 313 314 315 316 313 305 306 305 296 303 303 302 308 311 304 310 317 307 306 299 303 300 295 301 302 301 299 297 295 293 295 301 299 297 297 300 302 302 302 303 302 303 305
310 310 312 313 314 311 306 306 313 308 296 298 302 302 301 307 301 304 311 308 302 298 298 296 296 301 300 298 296 294 294 293 293 297 300 298 294 297 301 302 305 306 307 307 305
309 310 310 312 306 305 303 310 313 311 289 291 296 300 303 304 297 309 312 306 302 298 297 298 300 299 298 296 296 291 297 296 295 292 287 296 285 292 295 297 300 303 305 307 308
308 309 310 311 300 300 303 310 313 305 277 293 295 306 304 298 299 301 310 306 299 299 299 295 297 296 295 296 298 293 297 296 295 293 291 289 285 288 294 293 297 299 301 305 307
308 308 309 306 302 303 307 310 307 286 277 289 296 295 295 297 297 302 301 305 304 297 296 296 302 300 298 300 300 300 297 296 296 292 284 288 288 287 290 294 295 298 299 301 301
308 308 306 305 297 305 308 303 285 279 289 286 290 294 292 292 294 296 296 295 292 288 287 292 292 300 301 296 300 298 293 284 283 283 281 289 287 290 294 296 297 298 298 299 299
307 307 305 304 304 305 304 291 279 285 283 292 292 292 288 291 292 293 292 291 294 291 289 287 284 295 299 296 294 295 292 284 278 279 280 286 284 288 297 299 300 300 299 298 298
307 300 298 302 305 305 294 281 281 284 290 290 291 286 287 291 290 291 291 291 292 294 285 285 286 297 299 301 298 294 290 293 283 275 278 282 288 293 297 295 296 297 296 296 297
298 295 295 303 305 299 288 284 285 293 293 291 285 288 284 287 286 288 289 292 292 295 295 290 285 293 298 300 300 297 297 287 287 278 275 280 282 285 290 293 295 295 295 296 296
297 289 296 303 302 292 282 284 286 294 295 289 287 287 287 287 288 287 287 290 294 294 295 293 290 288 291 293 292 292 292 293 291 286 279 276 280 290 292 294 294 295 296 296 296
292 283 297 302 286 285 283 285 290 292 296 293 291 288 287 289 287 288 285 289 296 295 291 294 290 283 288 292 294 294 293 292 286 283 283 282 282 293 294 295 295 295 296 295 296
286 287 299 297 281 282 286 287 291 290 292 292 290 291 291 289 286 287 288 291 297 295 293 294 288 279 283 290 292 287 289 290 292 287 282 279 281 292 295 295 295 296 297 298 299
286 283 286 290 287 286 285 286 287 294 292 293 291 292 290 288 288 287 288 290 296 296 297 296 288 283 281 285 291 288 289 289 287 284 285 285 287 291 292 293 294 296 296 297 297
286 284 285 281 284 286 289 288 285 285 292 293 291 290 288 285 284 284 287 288 293 297 296 295 286 286 287 288 289 287 288 291 287 289 285 287 288 292 294 293 294 296 296 294 293
285 285 286 285 287 286 287 287 286 287 288 287 288 290 291 287 287 284 286 287 287 292 294 294 279 286 280 288 288 285 288 289 290 290 289 289 288 293 293 294 295 295 295 292 293
294 294 288 287 285 287 287 286 287 290 289 291 292 291 288 289 293 292 293 292 291 290 288 287 281 274 270 282 284 279 285 286 287 289 290 285 291 293 292 293 289 289 291 291 291
Wind_Speed
17 17 16 15 14 12 11 9 8 8 7 6 6 6 5 2 1 2 7 4 2 4 6 7 6 5 4 3 1 3 3 2 4 5 2 1 3 4 3 3 2 2 3 3 16
15 16 17 16 15 14 12 11 8 8 8 7 6 6 3 3 4 10 7 2 1 4 4 6 7 7 2 2 1 4 3 6 1 4 3 2 2 4 1 2 1 5 6 9 11
17 16 16 17 16 15 13 11 10 9 8 8 7 6 3 4 4 5 14 13 6 3 1 4 6 3 3 0 4 4 5 3 2 2 5 2 7 3 4 2 6 8 12 10 7
18 17 16 17 17 17 15 12 11 11 9 9 8 7 7 3 9 2 5 19 12 6 2 2 4 2 2 4 5 2 6 4 4 2 3 3 4 7 2 6 3 2 15 11 10
16 19 18 16 17 16 16 14 12 11 9 9 9 9 5 5 8 3 3 12 6 5 7 6 2 2 3 3 4 4 5 5 4 3 3 1 4 3 8 11 5 6 12 11 11
18 16 19 16 16 17 17 16 13 12 11 9 9 11 3 14 7 6 9 8 6 5 5 6 5 2 3 3 2 3 6 6 6 6 3 3 6 2 5 5 2 5 10 10 12
16 16 16 17 17 17 17 16 15 13 12 10 9 6 7 13 3 7 11 8 6 6 4 1 3 2 3 3 6 4 3 4 4 3 4 3 7 8 11 9 10 8 9 10 11
15 14 13 15 15 16 16 16 16 14 12 10 8 3 8 5 9 6 3 4 4 6 4 0 1 4 3 5 6 2 0 3 3 5 6 5 14 6 10 8 12 10 9 9 11
15 13 13 13 14 14 15 16 16 15 12 9 4 5 7 3 6 8 6 7 6 4 4 2 4 2 1 3 1 3 4 6 6 5 6 10 11 8 11 8 9 10 10 10 10
17 16 15 14 13 14 14 15 14 10 8 2 1 6 7 5 5 8 7 13 5 7 4 2 3 4 3 6 13 8 4 2 3 7 10 17 17 7 8 8 9 8 8 8 9
19 19 18 16 14 14 12 5 6 7 9 8 11 5 1 7 3 8 7 7 6 7 11 6 6 16 15 13 4 5 3 3 1 4 10 6 8 9 8 8 9 9 9 9 10
22 21 20 19 18 16 11 11 12 8 7 13 6 18 2 5 4 6 12 12 9 15 11 6 19 17 4 9 9 5 5 5 6 3 2 8 20 16 13 11 9 8 9 9 9
24 22 21 20 18 12 15 23 6 9 6 11 13 8 7 6 6 10 18 9 10 15 16 16 13 11 14 10 14 12 18 13 8 3 2 8 20 17 13 12 14 17 18 14 12
24 23 23 21 14 12 16 16 12 2 8 7 17 8 8 6 5 5 17 8 8 16 11 15 16 14 12 15 14 17 15 11 9 5 5 4 10 8 6 14 14 15 18 20 19
23 24 24 26 7 16 16 12 13 4 11 19 13 8 11 11 8 7 4 6 14 10 7 11 14 16 16 23 18 11 12 14 7 6 1 7 4 8 7 7 18 11 12 13 15
23 24 25 17 7 15 10 14 9 13 9 15 15 17 15 11 4 5 5 4 1 4 7 12 8 17 18 10 22 6 9 7 4 6 8 12 9 9 8 10 4 4 7 6 8
24 24 22 12 19 8 14 12 16 17 6 8 17 23 30 16 16 7 11 13 7 5 9 14 17 3 10 10 16 7 10 6 6 7 6 8 10 18 9 7 4 6 8 8 8
24 23 19 12 10 12 12 14 21 19 6 1 16 26 23 20 16 7 12 12 11 5 3 7 8 14 10 11 12 18 12 6 6 5 6 9 10 9 12 11 7 7 8 9 9
26 9 7 12 11 10 14 20 18 7 16 16 18 26 12 15 12 13 15 16 10 17 7 6 5 4 3 6 14 14 14 5 5 2 2 6 8 10 10 5 5 9 9 7 8
10 8 13 13 12 10 15 19 9 11 14 19 12 20 23 24 9 21 18 10 9 11 5 5 3 3 11 1 2 9 11 6 3 7 6 5 5 6 4 7 8 10 10 6 6
9 7 8 13 12 10 11 12 3 19 17 19 14 14 16 25 20 23 18 5 16 14 8 10 4 1 5 6 15 6 11 8 6 4 8 3 6 5 9 10 11 9 9 9 7
5 6 8 13 12 6 11 9 5 15 16 12 8 4 15 26 18 15 7 7 12 18 12 10 4 5 5 7 4 9 6 7 10 9 4 3 5 5 9 10 7 7 7 5 4
7 3 9 15 10 8 6 7 11 13 12 8 8 8 13 17 11 6 5 2 18 16 20 12 6 3 2 3 8 5 3 6 3 3 4 5 6 1 9 7 7 9 5 5 5
4 7 3 7 2 11 15 14 6 15 12 5 4 14 17 19 4 10 7 3 19 14 12 11 5 5 10 5 5 4 11 16 6 2 5 5 3 5 3 7 5 5 4 5 2
3 5 6 7 10 6 8 17 9 8 5 11 8 20 23 10 5 8 6 5 5 12 7 7 7 3 3 8 5 6 5 9 9 8 2 8 11 16 14 6 4 4 1 4 7
1 1 3 4 7 16 5 17 22 4 7 3 13 21 20 19 12 19 11 6 6 5 9 6 4 5 2 4 1 3 6 9 16 14 14 13 18 7 3 4 8 9 10 10 13
1 3 5 6 5 14 12 6 15 20 3 5 22 19 11 8 13 12 8 6 10 10 6 7 5 4 4 1 5 3 17 12 4 5 12 10 14 6 5 6 11 10 11 12 11
Wind_Direction
230 224 226 220 219 219 217 218 206 213 230 251 254 260 265 217 195 147 235 235 56 3 343 303 301 280 318 276 218 22 56 272 278 346 10 149 108 350 157 109 42 45 120 174 136
231 226 222 225 218 215 214 211 208 206 214 226 238 253 253 210 240 231 222 168 78 3 1 349 327 346 308 259 265 107 141 224 27 7 30 349 108 157 92 134 194 65 60 110 132
225 226 223 221 222 213 211 204 195 201 209 218 227 233 167 129 307 239 205 217 203 178 195 318 304 315 224 30 240 192 203 269 3 89 25 11 9 342 158 278 213 194 167 157 153
231 223 222 218 219 216 209 204 193 193 199 208 216 209 145 180 229 19 314 209 170 161 111 324 275 283 236 219 233 245 262 244 274 94 57 337 303 342 258 232 290 224 173 156 171
233 230 221 215 215 216 211 201 194 192 196 209 211 169 129 220 238 119 64 134 134 175 179 188 204 213 219 267 328 210 238 273 291 186 169 296 292 258 294 287 279 108 156 175 180
225 227 223 210 211 215 212 204 195 196 193 204 212 168 191 233 163 145 125 135 170 200 213 198 201 166 271 271 150 315 262 263 290 260 237 212 257 93 279 275 287 175 186 181 190
224 222 222 219 206 209 210 208 194 186 194 198 209 172 234 233 347 149 145 176 180 184 217 19 141 111 338 329 335 251 282 312 275 245 231 144 287 231 243 255 270 215 209 196 206
222 216 213 218 216 206 207 204 200 184 187 192 191 134 238 194 246 157 183 90 92 61 110 309 31 109 73 311 334 306 115 242 219 249 267 148 260 229 259 239 251 249 220 222 218
216 214 213 210 214 208 203 199 200 193 185 171 141 158 245 156 205 184 148 140 91 73 72 95 77 133 122 133 278 226 222 234 285 252 263 192 255 236 240 242 251 244 235 221 232
212 210 208 211 210 207 202 193 200 189 186 111 154 86 254 210 147 180 184 151 141 125 64 113 125 140 186 160 229 211 207 341 321 352 316 253 249 264 272 270 247 251 236 237 236
215 207 203 204 205 206 197 171 192 174 185 185 172 217 154 154 106 169 146 164 122 175 191 185 186 217 204 200 212 128 129 196 267 324 338 345 298 285 276 273 281 271 252 241 246
213 210 206 200 205 202 192 207 217 144 176 225 212 214 125 155 143 189 144 180 189 205 190 185 222 221 111 185 182 207 186 233 303 267 0 329 308 301 282 271 248 257 272 253 262
209 207 203 201 199 196 202 213 172 161 161 190 218 213 174 168 199 189 177 200 191 199 198 209 230 163 186 196 207 215 224 218 240 12 193 290 278 257 260 251 260 250 249 246 236
209 205 201 195 194 196 214 203 204 114 190 173 191 233 166 127 257 165 190 179 217 210 193 219 221 180 186 196 182 222 215 210 199 159 231 157 291 240 247 259 256 261 247 246 247
208 203 198 188 168 190 205 191 191 112 235 163 172 179 146 169 138 210 160 174 208 188 187 202 192 199 197 203 178 225 156 188 167 178 251 204 248 278 233 256 253 248 239 244 239
205 202 197 197 209 204 169 177 165 216 211 173 153 167 149 188 195 108 129 84 107 195 231 274 310 194 204 181 178 143 136 164 167 214 217 218 193 264 204 222 298 303 78 90 82
200 197 192 187 204 184 168 179 207 198 145 149 167 165 176 170 187 146 174 185 174 187 198 215 245 290 159 151 182 203 153 180 205 205 228 177 178 252 285 264 193 166 111 101 94
199 189 199 199 189 178 177 209 225 190 165 230 164 175 180 150 195 153 153 193 180 146 122 203 192 197 177 195 188 193 201 160 197 198 235 132 223 253 238 260 156 124 126 111 83
185 180 190 197 179 180 195 208 214 169 152 166 153 172 171 179 152 173 196 198 177 187 193 185 233 279 240 194 156 180 209 215 103 50 60 209 271 302 269 173 119 105 88 91 87
167 163 204 179 172 183 204 230 228 134 148 150 150 179 184 178 141 180 178 188 162 165 136 172 310 339 208 356 269 190 155 190 182 183 219 259 253 226 93 98 111 110 114 123 104
162 174 163 171 176 187 223 224 154 183 167 161 163 173 193 173 180 181 185 180 171 161 153 154 190 118 61 213 223 207 195 205 165 164 203 173 259 247 188 145 127 131 134 144 131
122 181 172 159 198 170 201 157 206 183 175 215 153 108 172 181 178 170 167 168 154 151 183 179 173 201 189 199 268 335 200 241 191 184 236 157 228 112 131 144 130 100 113 128 138
141 162 165 160 201 185 201 182 187 171 181 188 166 171 167 163 170 133 157 358 161 159 164 157 186 146 213 142 173 191 290 336 166 64 196 139 233 335 100 107 103 109 125 163 180
125 169 182 172 227 164 166 178 177 159 166 203 155 127 125 153 58 149 141 95 171 165 148 148 171 199 224 153 134 174 202 200 281 65 164 228 4 286 130 98 97 124 183 203 235
119 198 208 152 158 167 152 172 172 140 164 189 148 151 137 138 100 134 118 116 108 153 139 161 200 187 132 133 143 145 158 194 196 195 182 212 210 242 290 84 134 184 18 35 4
127 207 52 109 131 167 147 171 156 100 128 177 142 149 155 159 172 162 139 149 157 172 154 169 222 159 277 127 185 155 217 199 203 227 233 251 264 170 102 20 12 354 9 39 45
221 289 84 93 149 160 174 173 156 136 139 160 148 141 125 111 104 99 86 91 126 150 154 142 126 92 238 270 139 349 222 219 220 202 215 220 254 79 48 57 51 55 42 42 27